www.pogodaiklimat.ru

ПОГОДА в Ильичёвске

  • Прогноз погоды в Ильичёвске
  • Монитор погоды в Ильичёвске
  • Климат города

АРХИВ ПОГОДЫ в Ильичёвске

Время (UTC), дата Ветер
(напр.,м/с)
 
Видим.   Явления Облачность Т
(С)
Тd
(С)
f
(%)
Тe
(С)
Тes
(С)
Комфортность P
(гПа)
Po
(гПа)
Тmin
(С)
Tmax
(С)
R
(мм)
S
(см)
00 1.04 Ю 4 10 км ясно +8.3 +7.0 92 +5 +5 1015.5 1016.0
12 1.04 Ю 9 22 км 4/0
[Cs]
+14.8 +9.5 71 +13 +13 1010.5 1011.0
00 2.04 С 15 10 км ясно +9.5 +4.3 70 +4 +4 1012.2 1012.0
12 2.04 СЗ 8 30 км 8/4 600 м
[Cu hum Cs]
+12.6 -0.9 39 +10 +11 1021.5 1022.0
00 3.04 СЗ 2 10 км ясно +3.8 -2.5 63 +1 +1 1026.6 1027.0
12 3.04 СЗ 2 30 км 3/0
[Ci fib]
+15.4 -3.8 26 +16 +25 1024.3 1024.0
00 4.04 Ю 2 10 км ясно +6.0 +2.9 80 +4 +4 1021.1 1021.0
12 4.04 Ю 7 21 км 8/1 600 м
[Cu med, cong Ci fib]
+9.5 +7.1 85 +6 +8 1018.0 1018.0
00 5.04 Ю 3 10 км 8/0
[Ci fib]
+6.9 +6.2 95 +4 +4 1015.1 1015.0
12 6.04 Ю 3 22 км 6/1 300 м
[St Cs]
+13.1 +9.2 77 +12 +19 1012.1 1012.0
00 7.04 штиль 0 10 км 5/1 300 м
[St Ac trans]
+7.0 +6.4 96 +6 +6 1012.1 1012.0
12 7.04 Ю 2 22 км ясно +13.3 +10.0 80 +13 +23 1014.1 1014.0
00 8.04 Ю 1 10 км ясно +9.1 +8.2 94 +8 +8 1014.3 1014.0
12 8.04 Ю 1 28 км 10/0
[Cs]
+13.9 +7.0 63 +14 +24 1012.9 1013.0
00 9.04 СВ 2 10 км 10/0
[Ac und]
+11.9 +7.8 76 +11 +11 1006.5 1007.0
00 10.04 штиль 0 10 км ясно +9.4 +7.7 89 +9 +9 1002.5 1003.0
18 10.04 Ю 1 10 км слабый ливневой дождь 10/9 570 м
[Cb cap As op]
+11.5 +10.7 95 +11 +11 1002.8 1003.0 +15.6 3
06 11.04 В 3 н/о в посл. час туман {дождь} 10/10 450 м
[St]
+10.6 +9.8 95 +8 +8 1004.9 1005.0 +10.3 8
00 12.04 штиль 0 200 м туман ?/? +10.0 +9.4 96 +9 +9 1010.4 1010.0
06 12.04 штиль 0 1000 м слабая морось {туман} 10/10 540 м
[St]
+10.7 +10.2 97 +10 +10 1011.2 1011.0 +9.7 0.0
00 13.04 З 2 10 км 4/0
[Ac trans Ci fib]
+12.9 +11.8 93 +12 +12 1010.1 1010.0
06 15.04 З 3 27 км {ливн. осадки} 9/9 540 м
[Cb cap]
+15.6 +12.5 82 +15 +15 1001.0 1001.0 +11.7 0.0
00 16.04 З 2 10 км 3/0
[Ci fib]
+9.5 +6.2 80 +8 +8 1014.7 1015.0
12 16.04 Ю 3 19 км 4/0
[Ci fib]
+13.8 +9.9 77 +13 +22 1017.6 1018.0
00 17.04 Ю 2 10 км 3/0
[Ci fib]
+10.3 +9.8 97 +9 +9 1014.8 1015.0
12 17.04 Ю 5 18 км 8/0
[Cs]
+13.5 +11.4 87 +12 +17 1014.6 1015.0
00 18.04 Ю 3 10 км 9/0
[Cs]
+13.2 +10.5 84 +12 +12 1013.7 1014.0
12 18.04 Ю 3 27 км 8/0
[Cs]
+21.3 +12.9 59 +24 +32 комфорт 1013.8 1014.0
00 19.04 СВ 1 10 км 10/0
[Ac As]
+14.3 +11.9 85 +15 +15 1011.6 1012.0
12 19.04 СВ 2 27 км 10/0
[As op]
+20.8 +14.7 68 +24 +27 комфорт 1014.5 1015.0
06 20.04 СВ 5 6000 м слабый дождь {ливн. осадки} 10/10 500 м
[Frnb Ns]
+11.8 +10.6 92 +9 +9 1011.0 1011.0 +11.8 7
00 21.04 СЗ 5 10 км ясно +6.4 +3.4 81 +2 +2 1016.8 1017.0
00 22.04 З 1 10 км 3/0
[Ci fib]
+6.3 +2.4 76 +5 +5 1022.0 1022.0
12 22.04 Ю 10 30 км 1/1 600 м
[Cu hum]
+13.6 +9.7 77 +11 +11 1015.3 1015.0
00 23.04 Ю 5 10 км ясно +9.7 +7.8 88 +6 +6 1012.2 1012.0
12 23.04 Ю 4 28 км 6/0
[Ac trans Ci sp]
+15.2 +11.5 79 +14 +21 1011.5 1012.0
00 24.04 ЮВ 1 10 км 10/0
[Ac und]
+10.0 +9.5 97 +9 +9 1006.6 1007.0
12 24.04 ЮВ 2 24 км 8/0
[Ci fib]
+17.0 +12.1 73 +17 +28 1002.5 1003.0
00 25.04 СВ 1 10 км 10/0
[Ac und]
+11.5 +9.5 88 +11 +11 998.5 999.0
18 25.04 штиль 0 10 км {дождь} 10/10 700 м
[Sc]
+11.3 +10.5 95 +11 +11 998.1 998.0 +12.3 4
00 26.04 СЗ 1 10 км 10/0
[Ac und]
+11.1 +10.3 95 +11 +11 999.1 999.0
18 26.04 СЗ 6 10 км слабый ливневой дождь 10/10 630 м
[Cb cap]
+9.4 +7.6 89 +6 +6 1006.3 1006.0 +13.7 0.9
12 27.04 СЗ 4 30 км 5/5 600 м
[Cu med, cong]
+16.9 +7.8 55 +16 +21 1011.9 1012.0
00 28.04 З 3 10 км ясно +9.5 +7.0 84 +7 +7 1014.6 1015.0
12 28.04 Ю 7 20 км 1/1 600 м
[Cu med, cong]
+13.4 +10.5 83 +11 +14 1016.9 1017.0
00 29.04 штиль 0 4000 м дымка ясно +9.7 +8.9 95 +9 +9 1019.4 1019.0
00 30.04 СЗ 2 10 км 4/0
[Ac trans]
+9.8 +8.8 93 +8 +8 1019.1 1019.0
12 30.04 Ю 3 24 км 3/3 600 м
[Cb calv Ci fib]
+17.7 +13.1 74 +18 +25 1018.5 1019.0
00 1.05 СЗ 2 10 км ясно +12.4 +8.4 77 +12 +12 1018.9 1019.0
12 1.05 В 1 28 км ясно +19.8 +15.1 74 +23 +39 комфорт 1020.9 1021.0
00 2.05 СВ 1 10 км ясно +12.6 +11.4 92 +13 +13 1021.3 1021.0
12 2.05 В 2 3000 м ясно +19.0 +11.4 61 +20 +34 опасность
простуды
1020.4 1020.0
00 3.05 В 3 10 км ясно +13.4 +11.1 86 +12 +12 1015.9 1016.0

 

Местоположение метеостанции Ильичевск (Одесская область, Украина): широта 46.40 долгота 30.70 высота над уровнем моря 52 м.

В архиве по умолчанию представлена погода в Ильичёвске за последнюю неделю. Архивные данные за месяц целиком и за предыдущие месяцы, начиная с января 2011 года, Вы можете получить, выбрав интересующий диапазон дат из раскрывающегося списка и нажав кнопку "Ввод!".

Внимание! Время в таблицах - всемирное. Для получения местного времени необходимо прибавить поправку, которая в Ильичёвске равна 2 ч.

Ветер - указаны скорость ветра в м/с - средняя за 10 мин, порывы в срок и между сроками (в фигурных скобках) и направление, откуда дует ветер: С - северный, СВ - северо-восточный, В - восточный, ЮВ - юго-восточный, Ю - южный, ЮЗ - юго-западный, З - западный, СЗ - северо-западный.
Видимость - горизонтальная дальность видимости в метрах или километрах. При видимости от 1 до 10 км при отсутствии осадков обычно наблюдается дымка, при ухудшении видимости до 1 км и менее - туман. В сухую погоду видимость может ухудшаться дымом, пылью или мглою.
Явления - указаны атмосферные явления, наблюдавшиеся в срок или в последний час перед сроком; фигурными скобками обозначены явления, наблюдавшиеся между сроками (за 1-3 часа до срока); квадратными скобками обозначены град или гололедные отложения с указанием их диаметра в мм.
Облачность - указаны через наклонную черту общая и нижняя облачность в баллах и высота нижней границы облаков в метрах; квадратными скобками обозначены формы облаков: Ci - перистые, Cs - перисто-слоистые, Cc - перисто-кучевые, Ac - высококучевые, As - высокослоистые, Sc - слоисто-кучевые, Ns - слоисто-дождевые, Cu - кучевые, Cb - кучево-дождевые. Подробнее классификацию облаков см. в Атласе облаков (PDF).
T - Температура воздуха - температура, измеренная на высоте 2 м над землей.
Td - Температура точки росы - температура, при понижении до которой содержащийся в воздухе водяной пар достигнет насыщения.
f - Относительная влажность воздуха - влажноcть воздуха, измеренная на высоте 2 м над землей.
Te - Эффективная температура - температура, которую ощущает одетый по сезону человек в тени. Характеристика душности погоды. При расчете учитывается влияние влажности воздуха и скорости ветра на теплоощущения человека.
Tes - Эффективная температура на солнце - температура, которую ощущает человек, с поправкой на солнечный нагрев. Характеристика знойности погоды. Зависит от высоты солнца над горизонтом, облачности и скорости ветра. Ночью, в пасмурную погоду, а также при ветре 12 м/с и более поправка равна нулю.
P - Атмосферное давление - приведенное к уровню моря атмосферное давление.
Po - Атмосферное давление - измеренное на уровне метеостанции атмосферное давление.
Tmin - Минимальная температура - минимум температуры воздуха на высоте 2 м над землей.
Tmax - Максимальная температура - максимум температуры воздуха на высоте 2 м над землей.
R - Количество осадков - Количество выпавших осадков, мм. При наведении курсора мыши на число - период времени, за который выпало указанное количество осадков.
S - Снежный покров - Высота снежного покрова, см. При наведении курсора мыши на число - состояние снежного покрова и степень покрытия местности в баллах.